sat.trackr.live / text

‹ back to catalog

GSAT0209 (GALILEO 12)

NORAD 41174 · 2015-079A

PAYLOAD ACTIVE UNKNOWN

§ Identity

Operator
Country
ESA
Launch date
2015-12-17
Launch site
FRGUI
Launch vehicle
Mass (kg)
RCS (m²)
6.73

Purposes: earth_obs, nav

External: N2YO · Heavens-Above · Gunter

§ Orbital elements

Epoch: 2026-09-18T21:25:30.949248Z

Period
844.70 min
Inclination
55.8868°
Eccentricity
0.0003620
Mean motion
1.70474078 rev/d
Perigee alt
23,211.5 km
Apogee alt
23,232.9 km
Semi-major
29,600.3 km
B*
0.0000e+0
RAAN
98.6896°
Arg perigee
19.3368°
Mean anomaly
340.7495°
Rev number
6,637

§ Raw data

GSAT0209 (GALILEO 12)1 41174U 15079A   26261.89271932  .00000020  00000+0  00000+0 0  99972 41174  55.8868  98.6896 0003620  19.3368 340.7495  1.70474078 66378

JSON: /api/v1/satellites/41174 · /tle

For live sub-satellite position, see the globe view (requires WebGL).

§ Visibility from observer

Set your observer location to see the next 7 days of passes ≥ 10°. The values pass through the URL so the page stays shareable.

No JS? Fill the form by hand. The geolocation button needs JavaScript.